Location: Eschentzwiller
(47.7125°N, 7.3981°E)
Time: 04:14:26
(UTC+00:00)

GEOS 3 Rocket - Pass Details

Date: 27 October 2020
Orbit: 770 x 850 km, 115.0° (Epoch: 01 December)

Event Time Altitude Azimuth Distance (km) Brightness Sun altitude
Exits shadow 19:05:40 45° 196° (SSW) 1,118 4.3 -28.3°
Maximum altitude 19:06:46 53° 236° (SW) 1,017 4.2 -28.5°
Drops below altitude 10° 19:12:03 10° 313° (NW) 2,473 6.8 -29.4°
Sets 19:14:27 0° 318° (NW) 3,418 7.6 -29.8°
